Regional Weather Roundup
Issued by NWS

Home | Current Version | Previous Version | Graphics & Text | Print | Product List | Glossary Off
Versions: 1 2 3 4 5 6 7 8 9 10 11 12 13 14 15 16 17 18 19 20 21 22 23 24 25 26 27 28 29 30 31 32 33 34 35 36 37 38 39 40 41 42 43 44 45 46 47 48 49 50

136
ASUS43 KMKX 010200
RWRWI

WISCONSIN REGIONAL WEATHER ROUNDUP
NATIONAL WEATHER SERVICE MILWAUKEE/SULLIVAN WI
900 PM CDT SUN APR 30 2017

NOTE: "FAIR" INDICATES FEW OR NO CLOUDS BELOW 12,000 FEET WITH NO
SIGNIFICANT WEATHER AND/OR OBSTRUCTIONS TO VISIBILITY.

WIZ001-002-006>008-014>016-023>028-010300-
NORTHWEST WISCONSIN

CITY           SKY/WX    TMP DP  RH WIND       PRES   REMARKS
SUPERIOR ARPT  CLOUDY    38  31  76 NE16G26   29.91F WCI  29
ASHLAND        CLOUDY    40  25  55 NE10      29.89F WCI  33
HAYWARD        CLOUDY    41  26  55 NE12      29.82F
SIREN          CLOUDY    42  28  56 NE15      29.80F
CUMBERLAND     DRIZZLE   39  30  70 NE16G24   29.75F WCI  30
RICE LAKE      DRIZZLE   42  29  58 NE21G29   29.76F
CHETEK         LGT RAIN  44  31  61 NE9G23    29.74F
LADYSMITH      CLOUDY    46  26  46 NE15      29.78F
EAU CLAIRE     NOT AVBL
MENOMONIE      DRIZZLE   46  37  69 NE14G25   29.70F
NEW RICHMOND   LGT RAIN  40  32  72 NE21G26   29.70F WCI  31
OSCEOLA        CLOUDY    44  32  62 NE18G26   29.74F
$$

WIZ003>005-009-010-017-018-010300-
NORTH CENTRAL WISCONSIN

CITY           SKY/WX    TMP DP  RH WIND       PRES   REMARKS
MANITOWISH WTR DRIZZLE   38  26  61 NE9       29.85F WCI  32
ARBOR VITAE    CLOUDY    44  29  55 E9G18     29.84S
WOODRUFF       CLOUDY    44  29  55 E9G18     29.84S
RHINELANDER    LGT RAIN  41  37  86 E18G35    29.84F
EAGLE RIVER    CLOUDY    42  27  56 E13G18    29.86S
LAND O LAKES   CLOUDY    41  27  56 E5        29.89F
PHILLIPS       LGT RAIN  42  28  57 NE14      29.80F
TOMAHAWK       DRIZZLE   41  34  77 E16G24    29.83F
MEDFORD        DRIZZLE   39  35  84 E15       29.76F WCI  31
MERRILL        LGT RAIN  39  37  93 E16G25    29.80F WCI  30
$$

WIZ029-030-035-036-043>047-010300-
CENTRAL WISCONSIN

CITY           SKY/WX    TMP DP  RH WIND       PRES   REMARKS
WAUSAU         LGT RAIN  37  35  92 E15G23    29.79F WCI  28
MOSINEE        DRIZZLE   37  36  93 NE16G24   29.80F WCI  28
MARSHFIELD     LGT RAIN  38  35  89 E18G35    29.73F WCI  28
STEVENS POINT  LGT RAIN  35  35 100 E18G25    29.79F WCI  25
WAUPACA        DRIZZLE   39  37  90 NE14G21   29.80F WCI  31
WAUTOMA        LGT RAIN  38  36  92 NE16G25   29.76F WCI  29
WISC RAPIDS    LGT RAIN  38  37  97 E13G20    29.78F WCI  30
CAMP DOUGLAS   CLOUDY    39  37  93 E21G28    29.73F WCI  29
$$

WIZ011>013-019>022-031-037>040-048>050-010300-
NORTHEAST WISCONSIN

CITY           SKY/WX    TMP DP  RH WIND       PRES   REMARKS
ANTIGO         LGT RAIN  36  35  95 E15G26    29.84F WCI  26
SHAWANO        LGT RAIN  39  37  89 NE18G26   29.85F WCI  30
OCONTO         NOT AVBL
STURGEON BAY   CLOUDY    38  35  89 NE13G25   29.87S WCI  30
GREEN BAY      CLOUDY    39  39 100 NE16G29   29.83F WCI  30
MANITOWOC      NOT AVBL
APPLETON       LGT RAIN  37  37 100 NE14G24   29.78F FOG     WCI  29
CLINTONVILLE   LGT RAIN  36  34  93 E15G24    29.83F WCI  26
OSHKOSH        CLOUDY    39  37  92 NE17G26   29.77F WCI  30
$$

WIZ032>034-041-042-053>061-010300-
SOUTHWEST WISCONSIN

CITY           SKY/WX    TMP DP  RH WIND       PRES   REMARKS
LA CROSSE      CLOUDY    42  37  82 E16G26    29.65F
SPARTA         CLOUDY    39  37  95 E16G25    29.72F WCI  30
VIROQUA        CLOUDY    38  37  99 E28G36    29.61F WCI  26
BOSCOBEL       LGT RAIN  42  39  89 NE13G23   29.60F FOG
PRAIRIE DU CHI LGT RAIN  42  38  87 NE13G23   29.58F
PLATTEVILLE    CLOUDY    42  42 100 NE20G31   29.57F
$$

WIZ056-057-062-063-064-067-068-010300-
SOUTH CENTRAL WISCONSIN

CITY           SKY/WX    TMP DP  RH WIND       PRES   REMARKS
REEDSBURG      CLOUDY    38  38 100 NE14G23   29.68F FOG     WCI  29
BARABOO/DELLS  CLOUDY    38  37  94 NE17G28   29.70F FOG     WCI  29
LONE ROCK      NOT AVBL
MINERAL POINT  LGT RAIN  43  43 100 NE15G30   29.60F
MADISON        LGT RAIN  40  38  93 NE15G25   29.68F FOG     WCI  32
MIDDLETON      CLOUDY    42  42 100 NE15G26   29.69F
WATERTOWN      CLOUDY    40  40 100 NE13G22   29.71F WCI  33
MONROE         CLOUDY    41  41 100 NE21G29   29.61F
JANESVILLE     LGT RAIN  43  43 100 E17G23    29.64F FOG
$$

WIZ051-052-058>065-066-070>072-010300-
SOUTHEAST WISCONSIN

CITY           SKY/WX    TMP DP  RH WIND       PRES   REMARKS
MILWAUKEE      LGT RAIN  42  41  96 NE17G23   29.72F FOG
WAUKESHA       CLOUDY    39  37  93 NE12G23   29.71F WCI  32
MILWAUKEE/TIMM RAIN      39  37  93 NE13G18   29.75F WCI  32
RACINE         LGT RAIN  42  40  92 NE17      29.73F
KENOSHA        HVY RAIN  43  41  93 NE17      29.69F FOG
FOND DU LAC    LGT RAIN  39  36  89 NE14G21   29.78F WCI  31
SHEBOYGAN      LGT RAIN  39  37  92 NE22      29.77F WCI  29
WEST BEND      CLOUDY    37  37 100 NE16      29.75F WCI  28
JUNEAU         CLOUDY    39  38  97 NE15G21   29.75F WCI  30
$$

LSZ147-162-010300-
LAKE SUPERIOR

STATION/POSITION TIME  TEMP    WIND        PRES    WAVE
                       AIR SEA DIR/SP/G            HT/PER
                 (UTC) (F)     (DEG/KT/KT) (MB)    (FT/S)
DEVILS ISLAND    0100   38      60/ 16/ 18 1014.9F
PORT WING        0140   39      40/ 16/ 19 1012.9F
SAXON HARBOR     0130   39      50/ 10/ 11 1011.9F
$$

LMZ867-665-643>646-010300-
LAKE MICHIGAN

STATION/POSITION TIME  TEMP    WIND        PRES    WAVE
                       AIR SEA DIR/SP/G            HT/PER
                 (UTC) (F)     (DEG/KT/KT) (MB)    (FT/S)
CHAMBERS ISLAND  0140   38      40/ 18/ 23 1012.2F
N MID LAKE BUOY  0050   37 37   80/ 17/ 21 1014.7R   4/ 6
NORTHPORT PIER   0140   38      70/ 20/ 23 1012.9F
KEWAUNEE LAKESHO 0130   39      40/ 19/ 27 1010.2F
SHEBOYGAN LAKESH 0100   39      30/ 23/ 26 1010.1R
PORT WASHINGTON  0130   41      30/ 15/ 23 1008.8F
MILWAUKEE LAKESH 0130   40      30/ 20/ 22   N/A
S MID LAKE BUOY  0050   42 41   50/ 16/ 17 1006.8F   3/ 6
KENOSHA   LAKESH 0100   42      20/ 18/ 20 1007.1
$$

TC  - TEMPERATURE IN CELSIUS
VSB - VISIBILITY IN STATUTE MILES
WCI - WIND CHILL INDEX
HX  - HEAT INDEX





USA.gov is the U.S. government's official web portal to all federal, state and local government web resources and services.